Vorticity
5 5 5 5 6 8 8 9 10 11 11 12 12 12 13 13 10 13 20 19 14 12 12 12 12 12 12 11 9 7 7 7 9 10 11 11 13 13 14 14 14 15
4 4 7 9 10 14 15 16 18 18 18 17 17 15 18 23 21 18 18 14 10 10 12 12 11 11 10 9 9 8 7 7 8 11 12 13 15 15 15 15 15 16
3 5 9 10 9 11 12 15 17 16 12 9 10 11 13 18 18 13 10 7 7 10 11 12 10 9 8 9 9 8 7 7 9 11 12 13 14 13 14 14 14 14
6 6 7 9 10 8 6 8 12 13 11 10 11 14 13 12 10 8 6 5 7 9 11 10 9 7 7 8 9 9 8 8 9 10 12 13 13 13 13 12 12 12
14 13 11 12 11 9 8 9 10 9 9 11 12 14 14 12 11 10 9 7 6 7 7 7 7 7 7 7 7 8 8 8 8 9 10 11 12 13 12 11 10 9
14 13 10 10 8 8 9 8 9 8 8 9 9 8 7 8 10 9 9 9 7 6 5 6 7 7 7 7 5 5 6 7 7 7 8 9 10 11 10 10 10 9
15 13 10 9 8 8 7 6 8 9 10 12 11 9 9 9 11 9 7 8 7 6 5 4 6 8 9 9 6 5 4 5 6 7 7 7 6 7 7 7 8 8
11 10 8 6 5 5 4 6 9 9 10 12 12 13 13 10 9 8 9 9 9 13 14 11 9 7 8 9 9 7 5 4 6 6 6 7 7 7 6 6 7 7
8 7 5 5 4 4 4 5 7 7 6 6 7 9 11 11 10 9 11 11 9 10 11 11 9 6 6 7 9 9 6 4 5 5 6 7 7 7 7 7 7 7
8 8 8 8 6 5 5 4 5 4 4 5 5 6 8 11 12 12 11 10 8 7 6 6 6 6 6 7 8 10 8 5 4 5 7 8 7 7 7 7 8 7
3 6 8 9 8 8 6 3 3 4 6 7 7 8 8 8 9 10 10 9 10 11 10 9 8 9 9 9 10 12 13 12 9 8 8 7 6 6 5 6 7 7
3 4 3 3 5 6 6 6 6 6 7 6 5 7 9 9 10 10 10 10 11 11 10 9 10 11 12 11 9 8 7 9 10 10 10 8 6 5 5 5 5 6
12 11 7 4 3 4 7 9 10 9 8 8 10 10 8 5 1 -2 -0 2 6 9 11 11 9 7 7 9 8 5 2 2 4 7 7 5 4 3 4 6 6 7
11 12 11 10 7 6 6 6 8 9 7 6 7 5 2 -3 -8 -9 -4 -1 1 4 7 8 4 -0 1 4 7 10 9 7 7 8 8 6 5 5 8 9 7 6
4 6 9 10 9 7 5 4 4 3 1 -0 -1 -2 -2 -3 -4 -2 1 2 3 4 5 4 1 -1 1 3 8 14 14 11 11 11 11 11 10 8 8 7 7 6
-1 0 1 2 3 3 2 1 2 1 1 2 2 1 1 1 2 3 3 3 5 5 3 1 1 3 3 3 7 11 10 9 13 14 10 8 9 9 8 7 8 8
2 2 0 -1 0 1 1 1 1 0 1 2 3 2 1 2 3 3 3 5 5 5 4 3 4 5 4 4 5 6 7 11 15 14 6 2 3 7 8 7 6 5
4 2 1 -1 -1 0 1 1 2 2 3 3 3 3 3 3 3 2 4 6 6 6 6 4 5 7 9 9 7 7 12 13 10 7 5 3 4 5 5 4 4 8
5 4 4 4 4 3 2 2 3 2 2 3 4 5 6 5 4 5 7 8 7 8 7 6 9 12 13 13 9 8 9 5 -0 1 3 2 3 5 7 6 5 10
2 1 1 1 2 3 3 3 3 4 6 8 8 8 8 8 9 11 10 9 8 8 9 10 11 8 8 9 8 6 5 2 1 2 1 4 9 10 9 7 4 4
7 10 11 13 15 17 16 13 13 14 9 3 3 7 9 11 13 13 12 11 10 10 10 9 7 5 8 13 12 10 10 12 12 8 3 8 17 17 12 8 5 2
15 14 11 8 7 6 5 6 10 8 -3 -8 1 10 10 9 10 10 10 9 10 11 11 10 9 8 10 11 10 7 7 10 15 12 4 0 1 2 4 5 5 6
5 1 -3 -5 -5 -4 -2 1 4 1 -4 0 10 11 8 11 14 14 13 11 10 12 13 12 8 5 5 5 2 -2 -4 -1 6 7 3 -2 -6 -6 -1 2 4 6
3 2 0 0 2 4 5 4 4 4 5 10 14 12 11 14 16 16 15 14 13 15 18 14 6 2 4 3 -0 -1 0 3 7 6 5 4 1 -1 0 2 4 7
5 4 3 2 2 2 3 3 5 7 9 12 15 15 12 10 12 16 15 13 12 11 13 15 11 8 9 7 5 7 9 12 14 13 10 9 7 5 6 7 9 10
5 5 5 6 6 6 6 7 7 8 10 12 13 12 10 11 15 15 10 6 5 2 3 9 12 13 14 14 15 16 18 19 21 19 15 13 11 10 8 8 9 9
Height
5768 5767 5768 5768 5768 5768 5767 5766 5765 5765 5766 5766 5766 5766 5766 5766 5766 5766 5766 5767 5767 5767 5768 5768 5768 5769 5769 5769 5769 5769 5769 5770 5770 5770 5771 5771 5771 5771 5771 5771 5771 5771
5765 5765 5765 5766 5766 5766 5766 5764 5764 5763 5764 5764 5764 5764 5763 5763 5763 5764 5764 5765 5765 5766 5766 5766 5766 5766 5767 5767 5767 5767 5767 5767 5768 5768 5769 5769 5769 5769 5769 5769 5769 5769
5763 5763 5763 5763 5764 5764 5764 5763 5762 5762 5762 5762 5762 5762 5762 5761 5762 5762 5762 5763 5764 5764 5764 5764 5765 5765 5765 5765 5765 5765 5765 5766 5766 5766 5767 5767 5767 5767 5767 5767 5767 5767
5760 5761 5761 5761 5761 5761 5762 5761 5761 5761 5760 5760 5760 5760 5760 5760 5760 5760 5761 5761 5762 5762 5762 5763 5763 5763 5763 5763 5763 5763 5763 5764 5764 5764 5764 5765 5765 5765 5765 5765 5765 5766
5758 5758 5759 5759 5759 5759 5759 5759 5759 5759 5759 5759 5759 5758 5758 5758 5758 5759 5759 5759 5760 5760 5760 5760 5760 5760 5761 5761 5761 5761 5761 5761 5762 5762 5762 5762 5763 5763 5763 5764 5764 5764
5756 5756 5756 5756 5756 5757 5757 5757 5757 5757 5757 5757 5757 5757 5757 5757 5757 5757 5758 5758 5758 5758 5758 5758 5758 5758 5758 5758 5759 5759 5759 5760 5760 5760 5760 5761 5761 5761 5762 5762 5762 5762
5753 5754 5754 5754 5754 5754 5754 5755 5755 5755 5755 5755 5755 5755 5755 5756 5756 5756 5756 5757 5757 5757 5756 5756 5756 5756 5756 5756 5756 5757 5757 5757 5758 5758 5759 5759 5759 5759 5760 5760 5760 5760
5750 5751 5751 5751 5751 5751 5752 5752 5752 5753 5752 5753 5753 5753 5753 5754 5754 5754 5755 5755 5755 5755 5755 5754 5754 5754 5754 5754 5755 5755 5755 5755 5756 5756 5756 5757 5757 5757 5757 5758 5758 5758
5747 5748 5748 5748 5749 5749 5749 5750 5750 5750 5750 5750 5750 5751 5751 5752 5752 5752 5753 5753 5753 5753 5753 5753 5753 5753 5753 5753 5753 5753 5753 5753 5753 5753 5754 5754 5755 5755 5756 5756 5756 5756
5744 5745 5745 5746 5746 5747 5747 5747 5747 5748 5747 5747 5748 5748 5749 5750 5750 5750 5751 5751 5751 5751 5751 5751 5751 5751 5751 5751 5751 5750 5750 5750 5750 5751 5751 5752 5752 5753 5753 5753 5754 5754
5742 5743 5743 5744 5745 5745 5745 5745 5745 5745 5745 5745 5745 5746 5747 5747 5748 5748 5748 5748 5748 5749 5749 5749 5749 5749 5749 5749 5748 5748 5748 5748 5749 5749 5749 5750 5750 5750 5750 5751 5751 5751
5740 5741 5742 5742 5743 5743 5743 5743 5743 5742 5742 5742 5742 5743 5744 5744 5745 5745 5746 5746 5746 5746 5746 5746 5747 5746 5746 5746 5746 5746 5746 5746 5746 5747 5747 5747 5747 5747 5748 5748 5748 5748
5737 5738 5739 5739 5740 5740 5740 5740 5740 5740 5740 5740 5740 5740 5741 5741 5742 5742 5743 5743 5743 5743 5744 5744 5744 5744 5744 5744 5744 5744 5743 5743 5743 5744 5744 5744 5744 5744 5744 5744 5744 5744
5734 5735 5735 5736 5737 5737 5737 5737 5737 5737 5737 5737 5737 5738 5738 5738 5739 5739 5740 5740 5740 5740 5741 5741 5741 5741 5741 5741 5741 5741 5741 5740 5740 5741 5741 5740 5740 5741 5741 5741 5741 5741
5731 5732 5732 5733 5733 5734 5734 5734 5734 5734 5734 5734 5734 5735 5735 5735 5736 5736 5737 5737 5737 5737 5737 5738 5738 5738 5738 5738 5738 5738 5738 5738 5738 5738 5737 5737 5737 5737 5737 5737 5737 5737
5727 5728 5729 5729 5730 5730 5731 5731 5731 5731 5731 5731 5731 5731 5731 5732 5732 5732 5733 5733 5733 5733 5733 5733 5734 5734 5734 5734 5734 5734 5734 5734 5734 5734 5734 5734 5734 5733 5733 5734 5734 5734
5723 5724 5725 5725 5726 5726 5726 5726 5726 5727 5727 5727 5727 5727 5727 5727 5728 5728 5728 5728 5728 5729 5729 5729 5729 5730 5729 5729 5729 5729 5729 5730 5730 5730 5730 5730 5730 5729 5730 5730 5730 5730
5718 5719 5720 5721 5721 5721 5722 5722 5722 5722 5722 5722 5722 5722 5722 5722 5722 5723 5723 5723 5723 5724 5724 5724 5725 5725 5725 5724 5724 5724 5725 5725 5725 5726 5726 5726 5725 5725 5725 5726 5726 5725
5713 5713 5714 5715 5716 5716 5717 5717 5716 5716 5716 5717 5717 5717 5717 5716 5716 5717 5718 5719 5719 5718 5718 5719 5719 5720 5719 5720 5720 5720 5719 5720 5720 5721 5721 5721 5721 5721 5721 5721 5721 5721
5707 5707 5708 5709 5710 5710 5710 5711 5711 5711 5711 5711 5711 5712 5711 5711 5711 5711 5712 5713 5713 5713 5713 5713 5714 5714 5714 5714 5715 5714 5714 5715 5715 5716 5716 5716 5715 5715 5716 5716 5716 5716
5700 5700 5701 5702 5703 5703 5703 5704 5704 5704 5705 5705 5706 5706 5706 5706 5706 5705 5706 5707 5708 5708 5709 5708 5708 5709 5709 5709 5709 5709 5709 5710 5710 5711 5712 5711 5709 5709 5710 5710 5710 5710
5694 5694 5695 5695 5696 5697 5697 5698 5698 5698 5699 5699 5699 5700 5700 5701 5700 5699 5699 5700 5701 5702 5703 5703 5703 5703 5703 5703 5703 5703 5704 5704 5705 5706 5706 5705 5704 5704 5704 5704 5705 5705
5688 5688 5688 5689 5690 5690 5691 5691 5691 5691 5692 5692 5692 5693 5693 5694 5694 5693 5693 5693 5695 5696 5696 5696 5696 5697 5697 5698 5698 5698 5699 5699 5699 5700 5700 5699 5699 5699 5699 5699 5700 5700
5680 5681 5681 5681 5682 5682 5683 5684 5684 5684 5684 5684 5685 5686 5686 5686 5686 5687 5687 5687 5688 5689 5690 5690 5690 5690 5691 5692 5692 5693 5693 5693 5693 5693 5693 5694 5693 5693 5694 5694 5694 5694
5671 5672 5672 5673 5673 5674 5675 5675 5676 5676 5676 5677 5678 5678 5678 5678 5679 5679 5679 5679 5681 5682 5683 5683 5684 5684 5684 5685 5685 5686 5686 5686 5686 5687 5687 5687 5688 5688 5688 5688 5689 5689
5662 5663 5664 5664 5665 5665 5666 5667 5668 5669 5669 5669 5670 5670 5670 5671 5672 5672 5672 5672 5674 5675 5676 5677 5677 5677 5678 5678 5678 5679 5679 5679 5679 5680 5680 5681 5682 5682 5683 5683 5683 5683